Time,TemperatureF,DewpointF,PressureIn,WindDirection,WindDirectionDegrees,WindSpeedMPH,WindSpeedGustMPH,Humidity,HourlyPrecipIn,Conditions,Clouds,dailyrainin,SolarRadiationWatts/m^2,SoftwareType,DateUTC
2013-04-04 00:02:00,49.0,34.0,-100.00,SW,225,0.0,0.0,55,0.00,,,0.00,0.000000,,2013-04-04 07:02:00,
2013-04-04 00:12:00,49.0,34.0,-100.00,SW,225,0.0,0.0,55,0.00,,,0.00,0.000000,,2013-04-04 07:12:00,
2013-04-04 00:43:00,48.0,34.0,-100.00,East,89,0.0,3.0,58,0.00,,,0.00,0.000000,,2013-04-04 07:43:00,
2013-04-04 00:52:00,48.0,34.0,-100.00,East,89,0.0,3.0,58,0.00,,,0.00,0.000000,,2013-04-04 07:52:00,
2013-04-04 01:02:00,48.0,34.0,-100.00,East,89,0.0,3.0,58,0.00,,,0.00,0.000000,,2013-04-04 08:02:00,
2013-04-04 01:11:00,48.0,34.0,-100.00,East,89,0.0,3.0,58,0.00,,,0.00,0.000000,,2013-04-04 08:11:00,
2013-04-04 01:43:00,50.0,34.0,-100.00,WSW,239,0.0,3.0,54,0.00,,,0.00,0.000000,,2013-04-04 08:43:00,
2013-04-04 01:52:00,50.0,34.0,-100.00,WSW,239,0.0,3.0,54,0.00,,,0.00,0.000000,,2013-04-04 08:52:00,
2013-04-04 02:02:00,50.0,34.0,-100.00,WSW,239,0.0,3.0,54,0.00,,,0.00,0.000000,,2013-04-04 09:02:00,
2013-04-04 02:12:00,50.0,34.0,-100.00,WSW,239,0.0,3.0,54,0.00,,,0.00,0.000000,,2013-04-04 09:12:00,
2013-04-04 02:43:00,49.0,32.0,-100.00,East,99,0.0,4.0,51,0.00,,,0.00,0.000000,,2013-04-04 09:43:00,
2013-04-04 02:53:00,49.0,32.0,-100.00,East,99,0.0,4.0,51,0.00,,,0.00,0.000000,,2013-04-04 09:53:00,
2013-04-04 03:03:00,49.0,32.0,-100.00,East,99,0.0,4.0,51,0.00,,,0.00,0.000000,,2013-04-04 10:03:00,
2013-04-04 03:12:00,49.0,32.0,-100.00,East,99,0.0,4.0,51,0.00,,,0.00,0.000000,,2013-04-04 10:12:00,
2013-04-04 03:43:00,47.0,28.0,-100.00,SE,133,0.0,0.0,48,0.00,,,0.00,0.000000,,2013-04-04 10:43:00,
2013-04-04 03:53:00,47.0,28.0,-100.00,SE,133,0.0,0.0,48,0.00,,,0.00,0.000000,,2013-04-04 10:53:00,
2013-04-04 04:02:00,47.0,28.0,-100.00,SE,133,0.0,0.0,48,0.00,,,0.00,0.000000,,2013-04-04 11:02:00,
2013-04-04 04:12:00,47.0,28.0,-100.00,SE,133,0.0,0.0,48,0.00,,,0.00,0.000000,,2013-04-04 11:12:00,
2013-04-04 04:33:00,49.0,30.0,-100.00,ESE,120,0.0,3.0,48,0.00,,,0.00,0.000000,,2013-04-04 11:33:00,
2013-04-04 04:43:00,49.0,30.0,-100.00,ESE,120,0.0,3.0,48,0.00,,,0.00,0.000000,,2013-04-04 11:43:00,
2013-04-04 04:53:00,49.0,30.0,-100.00,ESE,120,0.0,3.0,48,0.00,,,0.00,0.000000,,2013-04-04 11:53:00,
2013-04-04 05:02:00,49.0,30.0,-100.00,ESE,120,0.0,3.0,48,0.00,,,0.00,0.000000,,2013-04-04 12:02:00,
2013-04-04 05:12:00,49.0,30.0,-100.00,ESE,120,0.0,3.0,48,0.00,,,0.00,0.000000,,2013-04-04 12:12:00,
2013-04-04 05:43:00,49.0,27.0,-100.00,East,101,0.0,2.0,42,0.00,,,0.00,0.000000,,2013-04-04 12:43:00,
2013-04-04 05:52:00,49.0,27.0,-100.00,East,101,0.0,2.0,42,0.00,,,0.00,0.000000,,2013-04-04 12:52:00,
2013-04-04 06:02:00,49.0,27.0,-100.00,East,101,0.0,2.0,42,0.00,,,0.00,0.000000,,2013-04-04 13:02:00,
2013-04-04 06:12:00,49.0,27.0,-100.00,East,101,0.0,2.0,42,0.00,,,0.00,0.000000,,2013-04-04 13:12:00,
2013-04-04 06:43:00,46.0,26.0,-100.00,ESE,103,0.0,4.0,45,0.00,,,0.00,0.000000,,2013-04-04 13:43:00,
2013-04-04 06:52:00,46.0,26.0,-100.00,ESE,103,0.0,4.0,45,0.00,,,0.00,0.000000,,2013-04-04 13:52:00,
2013-04-04 07:02:00,46.0,26.0,-100.00,ESE,103,0.0,4.0,45,0.00,,,0.00,0.000000,,2013-04-04 14:02:00,
2013-04-04 07:12:00,46.0,26.0,-100.00,ESE,103,0.0,4.0,45,0.00,,,0.00,0.000000,,2013-04-04 14:12:00,
2013-04-04 07:43:00,46.0,24.0,-100.00,ENE,75,0.0,5.0,41,0.00,,,0.00,10.000000,,2013-04-04 14:43:00,
2013-04-04 07:52:00,46.0,24.0,-100.00,ENE,75,0.0,5.0,41,0.00,,,0.00,10.000000,,2013-04-04 14:52:00,
2013-04-04 08:02:00,46.0,24.0,-100.00,ENE,75,0.0,5.0,41,0.00,,,0.00,10.000000,,2013-04-04 15:02:00,
2013-04-04 08:12:00,46.0,24.0,-100.00,ENE,75,0.0,5.0,41,0.00,,,0.00,10.000000,,2013-04-04 15:12:00,
2013-04-04 08:43:00,62.0,31.0,-100.00,SSW,192,0.0,4.0,31,0.00,,,0.00,221.000000,,2013-04-04 15:43:00,
2013-04-04 08:53:00,62.0,31.0,-100.00,SSW,192,0.0,4.0,31,0.00,,,0.00,221.000000,,2013-04-04 15:53:00,
2013-04-04 09:43:00,68.0,31.0,-100.00,NW,309,0.0,4.0,25,-99.99,,,0.00,508.000000,,2013-04-04 16:43:00,
2013-04-04 09:53:00,68.0,31.0,-100.00,NW,309,0.0,4.0,25,-99.99,,,0.00,508.000000,,2013-04-04 16:53:00,
2013-04-04 10:43:00,69.0,34.0,-100.00,WNW,287,2.0,10.0,27,-99.99,,,0.00,708.000000,,2013-04-04 17:43:00,
2013-04-04 10:52:00,69.0,34.0,-100.00,WNW,287,2.0,10.0,27,-99.99,,,0.00,708.000000,,2013-04-04 17:52:00,
2013-04-04 11:43:00,69.0,35.0,-100.00,West,276,6.0,11.0,29,0.00,,,0.00,987.000000,,2013-04-04 18:43:00,
2013-04-04 11:52:00,69.0,35.0,-100.00,West,276,6.0,11.0,29,0.00,,,0.00,987.000000,,2013-04-04 18:52:00,
2013-04-04 12:02:00,69.0,35.0,-100.00,West,276,6.0,11.0,29,0.00,,,0.00,987.000000,,2013-04-04 19:02:00,
2013-04-04 12:12:00,69.0,35.0,-100.00,West,276,6.0,11.0,29,0.00,,,0.00,987.000000,,2013-04-04 19:12:00,
2013-04-04 12:43:00,70.0,35.0,-100.00,WNW,284,3.0,12.0,28,0.00,,,0.00,1131.000000,,2013-04-04 19:43:00,
2013-04-04 12:52:00,70.0,35.0,-100.00,WNW,284,3.0,12.0,28,0.00,,,0.00,1131.000000,,2013-04-04 19:52:00,
2013-04-04 13:03:00,70.0,35.0,-100.00,WNW,284,3.0,12.0,28,0.00,,,0.00,1131.000000,,2013-04-04 20:03:00,
2013-04-04 13:12:00,70.0,35.0,-100.00,WNW,284,3.0,12.0,28,0.00,,,0.00,1131.000000,,2013-04-04 20:12:00,
2013-04-04 13:42:00,72.0,35.0,-100.00,WNW,296,6.0,13.0,26,0.00,,,0.00,1180.000000,,2013-04-04 20:42:00,
2013-04-04 13:53:00,72.0,35.0,-100.00,WNW,296,6.0,13.0,26,0.00,,,0.00,1180.000000,,2013-04-04 20:53:00,
2013-04-04 14:02:00,72.0,35.0,-100.00,WNW,296,6.0,13.0,26,0.00,,,0.00,1180.000000,,2013-04-04 21:02:00,
2013-04-04 14:12:00,72.0,35.0,-100.00,WNW,296,6.0,13.0,26,0.00,,,0.00,1180.000000,,2013-04-04 21:12:00,
2013-04-04 14:43:00,69.0,35.0,-100.00,NW,305,7.0,17.0,28,0.00,,,0.00,1126.000000,,2013-04-04 21:43:00,
2013-04-04 14:53:00,69.0,35.0,-100.00,NW,305,7.0,17.0,28,0.00,,,0.00,1126.000000,,2013-04-04 21:53:00,
2013-04-04 15:03:00,69.0,35.0,-100.00,NW,305,7.0,17.0,28,0.00,,,0.00,1126.000000,,2013-04-04 22:03:00,
2013-04-04 15:12:00,69.0,35.0,-100.00,NW,305,7.0,17.0,28,0.00,,,0.00,1126.000000,,2013-04-04 22:12:00,
2013-04-04 15:33:00,70.0,33.0,-100.00,WNW,292,7.0,15.0,25,0.00,,,0.00,1012.000000,,2013-04-04 22:33:00,
2013-04-04 15:43:00,70.0,33.0,-100.00,WNW,292,7.0,15.0,25,0.00,,,0.00,1012.000000,,2013-04-04 22:43:00,
2013-04-04 15:53:00,70.0,33.0,-100.00,WNW,292,7.0,15.0,25,0.00,,,0.00,1012.000000,,2013-04-04 22:53:00,
2013-04-04 16:02:00,70.0,33.0,-100.00,WNW,292,7.0,15.0,25,0.00,,,0.00,1012.000000,,2013-04-04 23:02:00,
2013-04-04 16:12:00,70.0,33.0,-100.00,WNW,292,7.0,15.0,25,0.00,,,0.00,1012.000000,,2013-04-04 23:12:00,
2013-04-04 16:42:00,70.0,30.0,-100.00,WNW,296,6.0,16.0,23,0.00,,,0.00,838.000000,,2013-04-04 23:42:00,
2013-04-04 16:52:00,70.0,30.0,-100.00,WNW,296,6.0,16.0,23,0.00,,,0.00,838.000000,,2013-04-04 23:52:00,
2013-04-04 17:02:00,70.0,30.0,-100.00,WNW,296,6.0,16.0,23,0.00,,,0.00,838.000000,,2013-04-05 00:02:00,
2013-04-04 17:12:00,70.0,30.0,-100.00,WNW,296,6.0,16.0,23,0.00,,,0.00,838.000000,,2013-04-05 00:12:00,
2013-04-04 17:42:00,66.0,38.0,-100.00,WNW,288,8.0,19.0,35,0.00,,,0.00,567.000000,,2013-04-05 00:42:00,
2013-04-04 17:52:00,66.0,38.0,-100.00,WNW,288,8.0,19.0,35,0.00,,,0.00,567.000000,,2013-04-05 00:52:00,
2013-04-04 18:02:00,66.0,38.0,-100.00,WNW,288,8.0,19.0,35,0.00,,,0.00,567.000000,,2013-04-05 01:02:00,
2013-04-04 18:12:00,66.0,38.0,-100.00,WNW,288,8.0,19.0,35,0.00,,,0.00,567.000000,,2013-04-05 01:12:00,
2013-04-04 18:42:00,58.0,32.0,-100.00,WNW,300,8.0,21.0,37,0.00,,,0.00,281.000000,,2013-04-05 01:42:00,
2013-04-04 18:53:00,58.0,32.0,-100.00,WNW,300,8.0,21.0,37,0.00,,,0.00,281.000000,,2013-04-05 01:53:00,
2013-04-04 19:12:00,58.0,32.0,-100.00,WNW,300,8.0,21.0,37,0.00,,,0.00,281.000000,,2013-04-05 02:12:00,
2013-04-04 19:42:00,55.0,31.0,-100.00,NW,313,9.0,21.0,39,0.00,,,0.00,31.000000,,2013-04-05 02:42:00,
2013-04-04 19:52:00,55.0,31.0,-100.00,NW,313,9.0,21.0,39,0.00,,,0.00,31.000000,,2013-04-05 02:52:00,
2013-04-04 20:02:00,55.0,31.0,-100.00,NW,313,9.0,21.0,39,0.00,,,0.00,31.000000,,2013-04-05 03:02:00,
2013-04-04 20:12:00,55.0,31.0,-100.00,NW,313,9.0,21.0,39,0.00,,,0.00,31.000000,,2013-04-05 03:12:00,
2013-04-04 20:43:00,54.0,31.0,-100.00,WSW,246,6.0,16.0,41,0.00,,,0.00,0.000000,,2013-04-05 03:43:00,
2013-04-04 20:53:00,54.0,31.0,-100.00,WSW,246,6.0,16.0,41,0.00,,,0.00,0.000000,,2013-04-05 03:53:00,
2013-04-04 21:02:00,54.0,31.0,-100.00,WSW,246,6.0,16.0,41,0.00,,,0.00,0.000000,,2013-04-05 04:02:00,
2013-04-04 21:12:00,54.0,31.0,-100.00,WSW,246,6.0,16.0,41,0.00,,,0.00,0.000000,,2013-04-05 04:12:00,
2013-04-04 21:42:00,54.0,33.0,-100.00,NW,312,7.0,17.0,44,0.00,,,0.00,0.000000,,2013-04-05 04:42:00,
2013-04-04 21:52:00,54.0,33.0,-100.00,NW,312,7.0,17.0,44,0.00,,,0.00,0.000000,,2013-04-05 04:52:00,
2013-04-04 22:02:00,54.0,33.0,-100.00,NW,312,7.0,17.0,44,0.00,,,0.00,0.000000,,2013-04-05 05:02:00,
2013-04-04 22:12:00,54.0,33.0,-100.00,NW,312,7.0,17.0,44,0.00,,,0.00,0.000000,,2013-04-05 05:12:00,
2013-04-04 22:42:00,48.0,34.0,-100.00,WNW,282,2.0,15.0,57,0.00,,,0.00,0.000000,,2013-04-05 05:42:00,
2013-04-04 22:52:00,48.0,34.0,-100.00,WNW,282,2.0,15.0,57,0.00,,,0.00,0.000000,,2013-04-05 05:52:00,
2013-04-04 23:02:00,48.0,34.0,-100.00,WNW,282,2.0,15.0,57,0.00,,,0.00,0.000000,,2013-04-05 06:02:00,
2013-04-04 23:12:00,48.0,34.0,-100.00,WNW,282,2.0,15.0,57,0.00,,,0.00,0.000000,,2013-04-05 06:12:00,
2013-04-04 23:42:00,47.0,37.0,-100.00,WNW,282,2.0,7.0,69,0.00,,,0.00,0.000000,,2013-04-05 06:42:00,
2013-04-04 23:52:00,47.0,37.0,-100.00,WNW,282,2.0,7.0,69,0.00,,,0.00,0.000000,,2013-04-05 06:52:00,